Location: Marne
(34.0056°N, 117.9064°W)
Time: 22:01:23
(UTC+00:00)

YAOGAN 1 - Pass Details

Date: 18 January 2020
Orbit: 619 x 621 km, 98.0° (Epoch: 20 February)

Event Time Altitude Azimuth Distance (km) Brightness Sun altitude
Rises 02:51:39 0° 180° (S) 2,881 6.1 -21.4°
Reaches altitude 10° 02:53:54 10° 186° (S) 1,979 5.3 -21.9°
Maximum altitude 02:58:02 47° 260° (W) 830 3.6 -22.7°
Drops below altitude 10° 03:02:13 10° 335° (NNW) 1,992 5.3 -23.6°
Sets 03:04:29 0° 341° (NNW) 2,902 6.1 -24.0°
